Regional Weather Roundup
Issued by NWS

Home | Current Version | Previous Version | Graphics & Text | Print | Product List | Glossary On
Versions: 1 2 3 4 5 6 7 8 9 10 11 12 13 14 15 16 17 18 19 20 21 22 23 24 25 26 27 28 29 30 31 32 33 34 35 36 37 38 39 40 41 42 43 44 45 46 47 48 49 50
000
ASUS45 KPSR 301200
RWRAZ

PRELIMINARY ARIZONA REGIONAL HOURLY WEATHER ROUNDUP
NATIONAL WEATHER SERVICE PHOENIX AZ
500 AM MST FRI JAN 30 2015

NOTE: FAIR INDICATES FEW OR NO CLOUDS BELOW 12,000 FEET WITH NO
SIGNIFICANT WEATHER AND/OR OBSTRUCTIONS TO VISIBILITY.

AZZ001>003-036-301300-
NORTHWEST ARIZONA

CITY           SKY/WX    TMP DP  RH WIND       PRES   REMARKS
BULLHEAD CITY  LGT RAIN  57  54  88 CALM      29.95F
KINGMAN        LGT RAIN  48  46  93 N7        29.96F
6HR MIN TEMP:  48; 6HR MAX TEMP:  49; 6HR PCP:  0.21;

$$

AZZ004>008-015-016-018-301300-
NORTH CENTRAL ARIZONA

CITY           SKY/WX    TMP DP  RH WIND       PRES   REMARKS
GRAND CANYON   LGT RAIN  37  34  89 E13       30.04F WCI  29
6HR MIN TEMP:  36; 6HR MAX TEMP:  37; 6HR PCP:  0.16;

PRESCOTT       LGT RAIN  46  43  89 SE9       29.97F
6HR MIN TEMP:  46; 6HR MAX TEMP:  47; 6HR PCP:  0.22;

FLAGSTAFF      LGT RAIN  37  36  96 E8        30.04F WCI  31
6HR MIN TEMP:  37; 6HR MAX TEMP:  38; 6HR PCP:  0.34;

PAYSON         LGT RAIN  45  45 100 VRB5      30.04F
$$

AZZ009>014-017-301300-
NORTHEAST ARIZONA

CITY           SKY/WX    TMP DP  RH WIND       PRES   REMARKS
WINSLOW        LGT RAIN  42  40  92 E12       30.06S
6HR MIN TEMP:  42; 6HR MAX TEMP:  46; 6HR PCP:  0.21;

SAINT JOHNS    CLOUDY    43  37  79 E18       30.05F
6HR MIN TEMP:  40; 6HR MAX TEMP:  43; 6HR PCP:  0.02;

WINDOW ROCK    LGT SNOW  34  30  85 CALM      30.16F FOG
6HR MIN TEMP:  34; 6HR MAX TEMP:  38; 6HR PCP:  0.34;

SHOW LOW       LGT RAIN  39  39 100 SW5       30.08F
$$

AZZ023-301300-
GREATER PHOENIX AREA

CITY           SKY/WX    TMP DP  RH WIND       PRES   REMARKS
PHOENIX        LGT RAIN  58  56  93 E7        29.90F
6HR MIN TEMP:  58; 6HR MAX TEMP:  60; 6HR PCP:  0.24;

BUCKEYE        CLOUDY    57  57 100 SW3       29.92F
LUKE AFB       LGT RAIN  58  57  97 CALM      29.91S
6HR MIN TEMP:  58; 6HR MAX TEMP:  59; 6HR PCP:  0.14;

DEER VALLEY    CLOUDY    56  54  93 E3        29.91F
6HR MIN TEMP:  56; 6HR MAX TEMP:  60; 6HR PCP:  0.18;

SCOTTSDALE     CLOUDY    57  53  86 CALM      29.92F
6HR MIN TEMP:  57; 6HR MAX TEMP:  59; 6HR PCP:  0.20;

MESA-GATEWAY   DRIZZLE   55  55 100 SE7       29.93F
$$

AZZ027-028-301300-
SOUTHWEST MARICOPA COUNTY AND PINAL COUNTY

CITY           SKY/WX    TMP DP  RH WIND       PRES   REMARKS
CASA GRANDE    CLOUDY    55  54  94 CALM      29.93S
6HR MIN TEMP:  55; 6HR MAX TEMP:  57; 6HR PCP:  0.04;

$$

AZZ503-504-507>509-301300-
SOUTHEAST ARIZONA

CITY           SKY/WX    TMP DP  RH WIND       PRES   REMARKS
TUCSON         CLOUDY    57  51  80 SE9       29.96F
6HR MIN TEMP:  57; 6HR MAX TEMP:  62; 6HR PCP:  0.17;

DAVIS-MONTHAN  CLOUDY    56  54  93 E7        29.94S
6HR MIN TEMP:  55; 6HR MAX TEMP:  61; 6HR PCP:  0.18;

NOGALES        RAIN      55  51  86 SE12      29.99F
6HR MIN TEMP:  54; 6HR MAX TEMP:  56; 6HR PCP:  0.41;

SIERRA VISTA   LGT RAIN  48  48 100 SE8       30.02F FOG
                                      6HR PCP:  0.08;

DOUGLAS        RAIN      48  47  96 NW3       30.05F FOG
6HR MIN TEMP:  48; 6HR MAX TEMP:  51; 6HR PCP:  0.15;

SAFFORD        LGT RAIN  48  45  89 S9        30.09F
6HR MIN TEMP:  48; 6HR MAX TEMP:  53; 6HR PCP:  0.16;

$$

AZZ020-021-025-026-031-301300-
SOUTHWEST ARIZONA

CITY           SKY/WX    TMP DP  RH WIND       PRES   REMARKS
YUMA           LGT RAIN  60  57  89 SE5       29.91F
6HR MIN TEMP:  60; 6HR MAX TEMP:  65; 6HR PCP:  0.01;

$$

CAZ031-033-041-043-047-048-061-301300-
SOUTHERN CALIFORNIA

CITY           SKY/WX    TMP DP  RH WIND       PRES   REMARKS
DOWNTOWN L.A.  LGT RAIN  63  48  58 N3        29.93F
6HR MIN TEMP:  61; 6HR MAX TEMP:  65; 6HR PCP: TRACE;

L.A. AIRPORT   LGT RAIN  64  47  53 CALM      29.93F
6HR MIN TEMP:  61; 6HR MAX TEMP:  67; 6HR PCP: TRACE;

SAN DIEGO      CLOUDY    60  55  83 W3        29.93F
6HR MIN TEMP:  60; 6HR MAX TEMP:  63; 6HR PCP: TRACE;

BURBANK        LGT RAIN  62  47  57 NW8       29.93F
6HR MIN TEMP:  61; 6HR MAX TEMP:  64; 6HR PCP: TRACE;

ONTARIO        CLOUDY    59  48  67 CALM      29.94F
6HR MIN TEMP:  58; 6HR MAX TEMP:  66; 6HR PCP: TRACE;

RIVERSIDE      CLOUDY    59  47  64 CALM      29.95F
6HR MIN TEMP:  59; 6HR MAX TEMP:  63;

PALM SPRINGS   LGT RAIN  63  49  60 SW9       29.95F
6HR MIN TEMP:  62; 6HR MAX TEMP:  69;

EL CENTRO NAS  CLOUDY    59  52  77 NW3       29.92F
6HR MIN TEMP:  58; 6HR MAX TEMP:  62; 6HR PCP:  0.01;

IMPERIAL       CLOUDY    57  54  89 CALM      29.91F
6HR MIN TEMP:  57; 6HR MAX TEMP:  64; 6HR PCP:  0.03;

BLYTHE         LGT RAIN  57  54  89 W7        29.93F
6HR MIN TEMP:  57; 6HR MAX TEMP:  62; 6HR PCP:  0.12;

NEEDLES        LGT RAIN  58  52  80 E5        29.92F
6HR MIN TEMP:  58; 6HR MAX TEMP:  64; 6HR PCP:  0.06;

$$

NVZ020-UTZ003-301300-
SOUTHERN NEVADA-UTAH

CITY           SKY/WX    TMP DP  RH WIND       PRES   REMARKS
LAS VEGAS      LGT RAIN  55  44  66 CALM      29.95F
6HR MIN TEMP:  55; 6HR MAX TEMP:  58; 6HR PCP: TRACE;

SALT LAKE CITY MOCLDY    37  35  92 CALM      30.18F
6HR MIN TEMP:  37; 6HR MAX TEMP:  39;

$$

NMZ009-TXZ055-301300-
NEW MEXICO-WEST TEXAS

CITY           SKY/WX    TMP DP  RH WIND       PRES   REMARKS
ALBUQUERQUE    CLOUDY    36  27  69 E21       30.30F WCI  25
6HR MIN TEMP:  34; 6HR MAX TEMP:  42; 6HR PCP:  0.02;

EL PASO        LGT RAIN  42  37  82 NE9       30.27F
6HR MIN TEMP:  42; 6HR MAX TEMP:  50; 6HR PCP:  0.18;

$$


........................KEY........................
SKY/WX - SKY CONDITION/WEATHER
TMP    - TEMPERATURE IN FAHRENHEIT
DP     - DEW POINT IN FAHRENHEIT
RH     - RELATIVE HUMIDITY IN PERCENT
WIND   - DIRECTION AND SPEED IN MILES PER HOUR (MPH)
VRB    - VARIABLE WIND DIRECTION
PRES   - MEAN SEA LEVEL PRESSURE IN INCHES OF MERCURY
         F - FALLING PRESSURE   R - RISING PRESSURE
         S - STEADY PRESSURE
VSB    - VISIBILITY IN MILES
HX     - HEAT INDEX IN FAHRENHEIT
WCI    - WIND CHILL INDEX IN FAHRENHEIT
TC     - TEMPERATURE IN CELSIUS WHICH IS ALSO KNOWN AS
         TEMPERATURE IN CENTIGRADE
AFB    - AIR FORCE BASE
         LUKE AFB IS LUKE AIR FORCE BASE
         DAVIS-MONTHAN IS DAVIS-MONTHAN AIR FORCE BASE
NAS    - NAVAL AIR STATION
         EL CENTRO NAS IS EL CENTRO NAVAL AIR STATION
N/A    - NOT AVAILABLE


USA.gov is the U.S. government's official web portal to all federal, state and local government web resources and services.